Regional Weather Roundup
Issued by NWS

Home | Current Version | Previous Version | Graphics & Text | Print | Product List | Glossary Off
Versions: 1 2 3 4 5 6 7 8 9 10 11 12 13 14 15 16 17 18 19 20 21 22 23 24 25 26 27 28 29 30 31 32 33 34 35 36 37 38 39 40 41 42 43 44 45 46 47 48 49 50

000
ASUS43 KTOP 060608
RWRKS

WEATHER ROUNDUP FOR KANSAS
NATIONAL WEATHER SERVICE GOODLAND KS
1200 AM CST TUE DEC 06 2016

NOTE:  "FAIR" INDICATES FEW OR NO CLOUDS BELOW 12,000 FEET WITH NO
SIGNIFICANT WEATHER AND/OR OBSTRUCTIONS TO VISIBILITY.

KSZ001>006-013>018-027>032-041>047-060700-
NORTHWEST KANSAS

CITY           SKY/WX    TMP DP  RH WIND       PRES   REMARKS
GOODLAND       CLEAR     18  11  74 NW10      29.95R WCI   6
6HR MIN TEMP:  18; 6HR MAX TEMP:  39;

HAYS           MOCLDY    33  19  56 N23G32    29.90R WCI  21
HILL CITY      CLOUDY    31  17  56 N20       29.95R WCI  19
6HR MIN TEMP:  31; 6HR MAX TEMP:  47;

RUSSELL        CLOUDY    34  23  64 N21G33    29.89R WCI  22
6HR MIN TEMP:  34; 6HR MAX TEMP:  44;

$$

KSZ061>065-074>080-084>089-060700-
SOUTHWEST KANSAS

CITY           SKY/WX    TMP DP  RH WIND       PRES   REMARKS
DODGE CITY     CLEAR     33  22  63 N24G38    29.86R WCI  20
6HR MIN TEMP:  33; 6HR MAX TEMP:  46;

ELKHART          N/A     30   6  36 N17         N/A  WCI  18
GARDEN CITY    CLOUDY    31  19  61 N29G37    29.89R WCI  16
6HR MIN TEMP:  31; 6HR MAX TEMP:  47;

GREAT BEND     CLEAR     34  28  79 N22       29.87R WCI  22
LIBERAL        CLEAR     34  16  47 N24G33    29.85R WCI  21
PRATT          CLEAR     36  31  82 N30       29.82R WCI  22
6HR MIN TEMP:  31; 6HR MAX TEMP:  41;

$$

KSZ066>073-081>083-090>101-060700-
SOUTHEAST KANSAS

CITY           SKY/WX    TMP DP  RH WIND       PRES   REMARKS
CHANUTE        CLEAR     32  30  92 N3        29.77R FOG
6HR MIN TEMP:  28; 6HR MAX TEMP:  41;

COFFEYVILLE    FOG       31  31 100 CALM      29.77R VSB 1/4
6HR MIN TEMP:  29; 6HR MAX TEMP:  43;

HUTCHINSON     PTCLDY    40  34  79 N17G29      N/A  WCI  31
6HR MIN TEMP:  30; 6HR MAX TEMP:  43;

MEDICINE LODGE   N/A     32  31  96 CALM      29.80R
NEWTON         MOCLDY    35  34  96 NW15      29.80R FOG     WCI  25
PARSONS        FOG       29  28  96 CALM      29.77R VSB 1/4
6HR MIN TEMP:  28; 6HR MAX TEMP:  36;

WICHITA INTL   CLEAR     34  33  96 NW5       29.77R
6HR MIN TEMP:  34; 6HR MAX TEMP:  44;

WICHITA JABRA  CLEAR     33  33 100 W5        29.77R FOG
6HR MIN TEMP:  33; 6HR MAX TEMP:  44;

WICHITA MCCONL CLEAR     36  34  93 N2        29.77R
WINFIELD       CLEAR     31  30  96 CALM      29.77S
6HR MIN TEMP:  31; 6HR MAX TEMP:  44;

$$

KSZ007>012-019>026-033>040-048>060-102>105-060700-
NORTHEAST KANSAS

CITY           SKY/WX    TMP DP  RH WIND       PRES   REMARKS
CONCORDIA      CLOUDY    34  25  69 N16G32    29.89R WCI  24
6HR MIN TEMP:  34; 6HR MAX TEMP:  44;

EMPORIA        FOG       30  30 100 W3        29.77S VSB 1/4
6HR MIN TEMP:  30; 6HR MAX TEMP:  40;

LAWRENCE       CLEAR     28  28 100 CALM      29.78R
6HR MIN TEMP:  28; 6HR MAX TEMP:  42;

MANHATTAN      CLOUDY    40  32  73 N17G25    29.83R WCI  31
6HR MIN TEMP:  34; 6HR MAX TEMP:  45;

MARYSVILLE     CLOUDY    36  28  75 N20G28    29.85R WCI  25
OLATHE IND     CLEAR     31  30  96 CALM      29.78R
6HR MIN TEMP:  30; 6HR MAX TEMP:  43;

OLATHE EXE     CLEAR     32  29  88 CALM      29.77S
6HR MIN TEMP:  31; 6HR MAX TEMP:  42;

SALINA         MOCLDY    38  29  70 N23G30    29.86R WCI  27
6HR MIN TEMP:  35; 6HR MAX TEMP:  44;

TOPEKA BILLARD CLOUDY    31  28  89 CALM      29.78S
6HR MIN TEMP:  31; 6HR MAX TEMP:  43;

TOPEKA FORBES  MOCLDY    32  30  92 CALM      29.78R
6HR MIN TEMP:  32; 6HR MAX TEMP:  43;

$$



USA.gov is the U.S. government's official web portal to all federal, state and local government web resources and services.